When you browse on this site, cookies collect data to enhance your experience and personalize the content and advertising you see.
Visit our Privacy Policy to learn more. By continuing to use the site, you agree to this use of cookies and data.
  • In Sweden
  • List of Countries
  • For 7 days
  • Water Temperature
  • Weather Map
  • Weather Widgets
  • user-avatar
    Login

    Hourly Weather Lyahovichi

    Today, 20 February, Thursday

    Time Temperature Precipitation Wind Pressure Humidity
    00:00 +2°C° 0 mm 2 mps 744 mmHg 87%
    01:00 +1°C° 0 mm 2 mps 744 mmHg 88%
    02:00 +1°C° 0 mm 2 mps 744 mmHg 90%
    03:00 +1°C° 0 mm 2 mps 744 mmHg 91%
    04:00 +1°C° 0 mm 2 mps 744 mmHg 91%
    05:00 +1°C° 0 mm 2 mps 744 mmHg 92%
    06:00 +1°C° 0 mm 2 mps 744 mmHg 92%
    07:00 +1°C° 0 mm 2 mps 745 mmHg 93%
    08:00 +2°C° 0 mm 1 mps 745 mmHg 94%
    09:00 +2°C° 0 mm 1 mps 746 mmHg 93%
    10:00 +3°C° 0 mm 1 mps 746 mmHg 92%
    11:00 +4°C° 0 mm 1 mps 747 mmHg 90%
    12:00 +4°C° 0 mm 1 mps 747 mmHg 91%
    13:00 +3°C° 0 mm 2 mps 747 mmHg 92%
    14:00 +3°C° 0 mm 2 mps 747 mmHg 93%
    15:00 +3°C° 0 mm 2 mps 748 mmHg 93%
    16:00 +4°C° 0 mm 1 mps 748 mmHg 93%
    17:00 +4°C° 0 mm 1 mps 748 mmHg 93%
    18:00 +3°C° 0 mm 1 mps 748 mmHg 93%
    19:00 +3°C° 0 mm 1 mps 749 mmHg 92%
    20:00 +3°C° 0 mm 1 mps 749 mmHg 92%
    21:00 +2°C° 0 mm 1 mps 749 mmHg 92%
    22:00 +1°C° 0 mm 2 mps 749 mmHg 92%
    23:00 +1°C° 0 mm 2 mps 749 mmHg 92%

    Tomorrow, 21 February, Friday

    Time Temperature Precipitation Wind Pressure Humidity
    00:00 +1°C° 0 mm 2 mps 749 mmHg 92%
    01:00 -1°C° 0 mm 2 mps 749 mmHg 92%
    02:00 -1°C° 0 mm 2 mps 749 mmHg 92%
    03:00 -1°C° 0 mm 3 mps 748 mmHg 91%
    04:00 -1°C° 0 mm 3 mps 748 mmHg 89%
    05:00 -1°C° 0 mm 3 mps 747 mmHg 88%
    06:00 -1°C° 0 mm 3 mps 747 mmHg 86%
    07:00 -2°C° 0 mm 4 mps 747 mmHg 83%
    08:00 -2°C° 0 mm 4 mps 747 mmHg 81%
    15:00 +2°C° 0 mm 6 mps 744 mmHg 69%
    16:00 +1°C° 0 mm 5 mps 744 mmHg 77%
    17:00 0°C° 0 mm 4 mps 744 mmHg 85%
    18:00 0°C° 0.2 mm 4 mps 745 mmHg 89%
    19:00 +1°C° 0.2 mm 3 mps 746 mmHg 93%
    20:00 +1°C° 0.2 mm 3 mps 746 mmHg 97%
    21:00 +1°C° 0.1 mm 3 mps 747 mmHg 95%
    22:00 0°C° 0.1 mm 3 mps 747 mmHg 94%
    23:00 0°C° 0.1 mm 3 mps 747 mmHg 93%

    Day after tomorrow, 22 February, Saturday

    Time Temperature Precipitation Wind Pressure Humidity
    00:00 0°C° 0 mm 3 mps 748 mmHg 92%
    01:00 0°C° 0 mm 3 mps 748 mmHg 91%
    02:00 0°C° 0 mm 3 mps 749 mmHg 90%
    03:00 0°C° 0 mm 3 mps 749 mmHg 90%
    04:00 0°C° 0 mm 3 mps 749 mmHg 90%
    05:00 0°C° 0 mm 3 mps 749 mmHg 90%
    06:00 -1°C° 0 mm 3 mps 750 mmHg 91%
    07:00 -1°C° 0 mm 3 mps 750 mmHg 93%
    08:00 -2°C° 0 mm 3 mps 750 mmHg 94%
    09:00 -1°C° 0 mm 4 mps 750 mmHg 88%
    10:00 0°C° 0 mm 4 mps 750 mmHg 83%
    11:00 +1°C° 0 mm 5 mps 749 mmHg 77%
    12:00 +2°C° 0 mm 6 mps 749 mmHg 73%
    13:00 +2°C° 0 mm 6 mps 749 mmHg 68%
    14:00 +3°C° 0 mm 7 mps 748 mmHg 64%
    15:00 +3°C° 0 mm 7 mps 747 mmHg 65%
    16:00 +2°C° 0 mm 7 mps 746 mmHg 66%
    17:00 +2°C° 0 mm 6 mps 745 mmHg 67%
    18:00 +2°C° 0 mm 7 mps 745 mmHg 67%
    19:00 +1°C° 0 mm 8 mps 744 mmHg 67%
    20:00 +1°C° 0 mm 8 mps 743 mmHg 67%
    21:00 +1°C° 0.2 mm 8 mps 742 mmHg 69%
    22:00 +1°C° 0.2 mm 8 mps 741 mmHg 71%
    23:00 +1°C° 0.2 mm 8 mps 740 mmHg 73%

    23 February, Sunday

    Time Temperature Precipitation Wind Pressure Humidity
    00:00 +2°C° 0 mm 8 mps 740 mmHg 73%
    01:00 +2°C° 0 mm 8 mps 739 mmHg 72%
    02:00 +2°C° 0 mm 8 mps 739 mmHg 71%
    03:00 +2°C° 0.3 mm 8 mps 738 mmHg 76%
    04:00 +2°C° 0.3 mm 8 mps 737 mmHg 81%
    05:00 +2°C° 0.3 mm 8 mps 737 mmHg 86%
    06:00 +2°C° 0.6 mm 8 mps 737 mmHg 84%
    07:00 +1°C° 0.6 mm 8 mps 737 mmHg 82%
    08:00 +1°C° 0.6 mm 8 mps 737 mmHg 80%
    09:00 +1°C° 0.1 mm 9 mps 737 mmHg 74%
    10:00 +1°C° 0.1 mm 9 mps 737 mmHg 67%
    11:00 +1°C° 0.1 mm 10 mps 737 mmHg 61%
    12:00 +2°C° 0.1 mm 9 mps 737 mmHg 59%
    13:00 +2°C° 0.1 mm 9 mps 737 mmHg 57%
    14:00 +2°C° 0.1 mm 9 mps 737 mmHg 55%
    15:00 +2°C° 0 mm 8 mps 737 mmHg 56%
    16:00 +2°C° 0 mm 6 mps 737 mmHg 58%
    17:00 +2°C° 0 mm 5 mps 737 mmHg 60%
    18:00 +1°C° 0 mm 5 mps 737 mmHg 63%
    19:00 0°C° 0 mm 5 mps 737 mmHg 67%
    20:00 0°C° 0 mm 5 mps 737 mmHg 70%
    21:00 -1°C° 0 mm 5 mps 737 mmHg 72%
    22:00 -1°C° 0 mm 5 mps 736 mmHg 75%
    23:00 -1°C° 0 mm 5 mps 736 mmHg 77%

    24 February, Monday

    Time Temperature Precipitation Wind Pressure Humidity
    00:00 -1°C° 0 mm 5 mps 736 mmHg 78%
    01:00 -1°C° 0 mm 5 mps 736 mmHg 79%
    02:00 -2°C° 0 mm 5 mps 735 mmHg 80%
    03:00 -2°C° 0 mm 6 mps 735 mmHg 82%
    04:00 -2°C° 0 mm 6 mps 735 mmHg 83%
    05:00 -2°C° 0 mm 7 mps 734 mmHg 85%
    06:00 -2°C° 0.4 mm 8 mps 735 mmHg 89%
    07:00 -2°C° 0.4 mm 8 mps 735 mmHg 92%
    08:00 -3°C° 0.4 mm 9 mps 735 mmHg 95%
    09:00 -1°C° 0.3 mm 9 mps 736 mmHg 85%
    10:00 0°C° 0.3 mm 9 mps 737 mmHg 74%
    11:00 +1°C° 0.3 mm 9 mps 738 mmHg 64%
    12:00 +1°C° 0 mm 9 mps 738 mmHg 63%
    13:00 +1°C° 0 mm 9 mps 739 mmHg 61%
    14:00 +2°C° 0 mm 8 mps 740 mmHg 60%
    15:00 +1°C° 0 mm 8 mps 740 mmHg 62%
    16:00 +2°C° 0 mm 7 mps 740 mmHg 64%
    17:00 +1°C° 0 mm 6 mps 741 mmHg 65%
    18:00 +1°C° 0 mm 6 mps 741 mmHg 68%
    19:00 0°C° 0 mm 5 mps 742 mmHg 70%
    20:00 -1°C° 0 mm 5 mps 743 mmHg 72%
    21:00 -1°C° 0 mm 5 mps 743 mmHg 75%
    22:00 -2°C° 0 mm 5 mps 744 mmHg 77%
    23:00 -2°C° 0 mm 4 mps 744 mmHg 79%

    25 February, Tuesday

    Time Temperature Precipitation Wind Pressure Humidity
    00:00 -3°C° 0 mm 4 mps 744 mmHg 81%
    01:00 -2°C° 0 mm 3 mps 744 mmHg 83%
    02:00 -2°C° 0 mm 3 mps 744 mmHg 85%
    03:00 -2°C° 0 mm 2 mps 744 mmHg 85%
    04:00 -2°C° 0 mm 2 mps 743 mmHg 85%
    05:00 -2°C° 0 mm 2 mps 743 mmHg 84%
    06:00 -2°C° 0 mm 2 mps 743 mmHg 83%
    07:00 -1°C° 0 mm 3 mps 743 mmHg 81%
    08:00 -1°C° 0 mm 3 mps 742 mmHg 79%
    09:00 -1°C° 0 mm 4 mps 742 mmHg 76%
    10:00 0°C° 0 mm 5 mps 741 mmHg 73%
    11:00 +1°C° 0 mm 6 mps 740 mmHg 70%
    12:00 +1°C° 0 mm 6 mps 740 mmHg 76%
    13:00 +1°C° 0 mm 6 mps 739 mmHg 81%
    14:00 +1°C° 0 mm 6 mps 738 mmHg 87%
    15:00 +1°C° 0.1 mm 6 mps 738 mmHg 89%
    16:00 +1°C° 0.1 mm 5 mps 737 mmHg 91%
    17:00 +1°C° 0.1 mm 5 mps 737 mmHg 93%
    18:00 +1°C° 0.1 mm 5 mps 736 mmHg 94%
    19:00 +1°C° 0.1 mm 4 mps 736 mmHg 95%
    20:00 +1°C° 0.1 mm 4 mps 736 mmHg 97%
    21:00 +1°C° 0.1 mm 4 mps 736 mmHg 94%
    22:00 +1°C° 0.1 mm 4 mps 736 mmHg 92%
    23:00 +3°C° 0.1 mm 4 mps 736 mmHg 89%
    Show more